Time,TemperatureF,DewpointF,PressureIn,WindDirection,WindDirectionDegrees,WindSpeedMPH,WindSpeedGustMPH,Humidity,HourlyPrecipIn,Conditions,Clouds,dailyrainin,SoftwareType,DateUTC
2013-02-20 00:02:00,26.0,13.0,29.84,NW,309,9.0,18.0,57,0.00,,,0.00,,2013-02-20 05:02:00,
2013-02-20 00:12:00,26.0,13.0,29.84,NW,309,9.0,18.0,57,0.00,,,0.00,,2013-02-20 05:12:00,
2013-02-20 00:22:00,26.0,13.0,29.85,NW,305,8.0,19.0,57,0.00,,,0.00,,2013-02-20 05:22:00,
2013-02-20 00:32:00,26.0,14.0,29.85,WNW,297,8.0,23.0,60,0.00,,,0.00,,2013-02-20 05:32:00,
2013-02-20 00:43:00,26.0,14.0,29.85,WNW,297,8.0,23.0,60,0.00,,,0.00,,2013-02-20 05:43:00,
2013-02-20 00:52:00,25.0,14.0,29.85,NW,323,8.0,20.0,62,0.00,,,0.00,,2013-02-20 05:52:00,
2013-02-20 01:02:00,25.0,13.0,29.85,NNW,339,7.0,22.0,59,0.00,,,0.00,,2013-02-20 06:02:00,
2013-02-20 01:11:00,25.0,13.0,29.85,NNW,339,7.0,22.0,59,0.00,,,0.00,,2013-02-20 06:11:00,
2013-02-20 01:22:00,25.0,13.0,29.84,NNW,342,9.0,22.0,60,0.00,,,0.00,,2013-02-20 06:22:00,
2013-02-20 01:32:00,25.0,12.0,29.83,NW,306,8.0,19.0,57,0.00,,,0.00,,2013-02-20 06:32:00,
2013-02-20 01:42:00,25.0,12.0,29.83,NW,306,8.0,19.0,57,0.00,,,0.00,,2013-02-20 06:42:00,
2013-02-20 01:52:00,24.0,11.0,29.83,NNW,342,8.0,21.0,58,0.00,,,0.00,,2013-02-20 06:52:00,
2013-02-20 02:01:00,24.0,11.0,29.84,NNW,327,11.0,24.0,58,0.00,,,0.00,,2013-02-20 07:01:00,
2013-02-20 02:11:00,24.0,11.0,29.84,NNW,327,11.0,24.0,58,0.00,,,0.00,,2013-02-20 07:11:00,
2013-02-20 02:21:00,24.0,11.0,29.83,SW,214,8.0,21.0,57,0.00,,,0.00,,2013-02-20 07:21:00,
2013-02-20 02:32:00,23.0,10.0,29.82,North,11,8.0,22.0,58,0.00,,,0.00,,2013-02-20 07:32:00,
2013-02-20 02:42:00,23.0,10.0,29.82,North,11,8.0,22.0,58,0.00,,,0.00,,2013-02-20 07:42:00,
2013-02-20 02:52:00,23.0,10.0,29.80,NNW,344,11.0,25.0,56,0.00,,,0.00,,2013-02-20 07:52:00,
2013-02-20 03:05:00,23.0,10.0,29.82,NNW,347,5.0,25.0,56,0.00,,,0.00,,2013-02-20 08:05:00,
2013-02-20 03:11:00,23.0,10.0,29.82,NNW,347,5.0,25.0,56,0.00,,,0.00,,2013-02-20 08:11:00,
2013-02-20 03:21:00,23.0,10.0,29.82,NW,308,10.0,22.0,56,0.00,,,0.00,,2013-02-20 08:21:00,
2013-02-20 03:31:00,23.0,10.0,29.82,NNW,335,10.0,27.0,56,0.00,,,0.00,,2013-02-20 08:31:00,
2013-02-20 03:42:00,23.0,10.0,29.82,NNW,335,10.0,27.0,56,0.00,,,0.00,,2013-02-20 08:42:00,
2013-02-20 03:52:00,23.0,9.0,29.81,North,5,7.0,27.0,55,0.00,,,0.00,,2013-02-20 08:52:00,
2013-02-20 04:01:00,23.0,8.0,29.81,NNW,327,13.0,25.0,53,0.00,,,0.00,,2013-02-20 09:01:00,
2013-02-20 04:11:00,23.0,8.0,29.81,NNW,327,13.0,25.0,53,0.00,,,0.00,,2013-02-20 09:11:00,
2013-02-20 04:21:00,22.0,8.0,29.80,NW,320,12.0,30.0,53,0.00,,,0.00,,2013-02-20 09:21:00,
2013-02-20 04:32:00,22.0,8.0,29.79,NW,311,11.0,27.0,53,0.00,,,0.00,,2013-02-20 09:32:00,
2013-02-20 04:42:00,22.0,8.0,29.79,NW,311,11.0,27.0,53,0.00,,,0.00,,2013-02-20 09:42:00,
2013-02-20 04:52:00,22.0,7.0,29.80,NW,323,14.0,23.0,51,0.00,,,0.00,,2013-02-20 09:52:00,
2013-02-20 05:01:00,22.0,7.0,29.79,NW,323,15.0,27.0,51,0.00,,,0.00,,2013-02-20 10:01:00,
2013-02-20 05:12:00,22.0,7.0,29.79,NW,323,15.0,27.0,51,0.00,,,0.00,,2013-02-20 10:12:00,
2013-02-20 05:22:00,23.0,6.0,29.79,NW,319,13.0,23.0,48,0.00,,,0.00,,2013-02-20 10:22:00,
2013-02-20 05:32:00,23.0,6.0,29.79,WNW,291,12.0,28.0,47,0.00,,,0.00,,2013-02-20 10:32:00,
2013-02-20 05:42:00,23.0,6.0,29.79,WNW,291,12.0,28.0,47,0.00,,,0.00,,2013-02-20 10:42:00,
2013-02-20 05:52:00,23.0,4.0,29.79,NNW,344,13.0,21.0,44,0.00,,,0.00,,2013-02-20 10:52:00,
2013-02-20 06:02:00,23.0,5.0,29.79,NNW,344,14.0,24.0,45,0.00,,,0.00,,2013-02-20 11:02:00,
2013-02-20 06:11:00,23.0,4.0,29.79,North,5,14.0,31.0,44,0.00,,,0.00,,2013-02-20 11:11:00,
2013-02-20 06:21:00,23.0,4.0,29.79,North,5,14.0,31.0,44,0.00,,,0.00,,2013-02-20 11:21:00,
2013-02-20 06:32:00,23.0,4.0,29.80,NNW,331,14.0,25.0,44,0.00,,,0.00,,2013-02-20 11:32:00,
2013-02-20 06:42:00,23.0,4.0,29.80,NNW,331,14.0,25.0,44,0.00,,,0.00,,2013-02-20 11:42:00,
2013-02-20 06:52:00,23.0,4.0,29.81,North,350,15.0,27.0,43,0.00,,,0.00,,2013-02-20 11:52:00,
2013-02-20 07:02:00,23.0,4.0,29.80,NNW,348,14.0,24.0,43,0.00,,,0.00,,2013-02-20 12:02:00,
2013-02-20 07:12:00,23.0,4.0,29.80,NNW,348,14.0,24.0,43,0.00,,,0.00,,2013-02-20 12:12:00,
2013-02-20 07:22:00,23.0,2.0,29.83,NW,324,15.0,31.0,39,0.00,,,0.00,,2013-02-20 12:22:00,
2013-02-20 07:32:00,24.0,3.0,29.83,NNW,333,15.0,26.0,40,0.00,,,0.00,,2013-02-20 12:32:00,
2013-02-20 07:42:00,24.0,3.0,29.83,NNW,333,15.0,26.0,40,0.00,,,0.00,,2013-02-20 12:42:00,
2013-02-20 07:53:00,24.0,3.0,29.81,NNW,334,13.0,30.0,40,0.00,,,0.00,,2013-02-20 12:53:00,
2013-02-20 08:01:00,24.0,2.0,29.83,West,280,12.0,27.0,38,0.00,,,0.00,,2013-02-20 13:01:00,
2013-02-20 08:12:00,24.0,2.0,29.83,West,280,12.0,27.0,38,0.00,,,0.00,,2013-02-20 13:12:00,
2013-02-20 08:22:00,25.0,2.0,29.83,NNW,333,11.0,27.0,36,0.00,,,0.00,,2013-02-20 13:22:00,
2013-02-20 08:32:00,27.0,0.0,29.84,NW,318,13.0,30.0,31,0.00,,,0.00,,2013-02-20 13:32:00,
2013-02-20 08:42:00,27.0,0.0,29.84,NW,318,13.0,30.0,31,0.00,,,0.00,,2013-02-20 13:42:00,
2013-02-20 08:52:00,27.0,1.0,29.85,North,5,9.0,24.0,32,0.00,,,0.00,,2013-02-20 13:52:00,
2013-02-20 09:01:00,28.0,-1.0,29.88,NNW,344,9.0,21.0,28,0.00,,,0.00,,2013-02-20 14:01:00,
2013-02-20 09:11:00,28.0,-1.0,29.88,NNW,344,9.0,21.0,28,0.00,,,0.00,,2013-02-20 14:11:00,
2013-02-20 09:22:00,28.0,-2.0,29.89,NNW,331,12.0,20.0,27,0.00,,,0.00,,2013-02-20 14:22:00,
2013-02-20 09:32:00,29.0,-2.0,29.90,NW,315,10.0,23.0,26,0.00,,,0.00,,2013-02-20 14:32:00,
2013-02-20 09:42:00,29.0,-2.0,29.90,NW,315,10.0,23.0,26,0.00,,,0.00,,2013-02-20 14:42:00,
2013-02-20 09:52:00,29.0,-1.0,29.90,North,10,11.0,29.0,27,0.00,,,0.00,,2013-02-20 14:52:00,
2013-02-20 10:02:00,31.0,1.0,29.92,NNW,327,8.0,20.0,27,0.00,,,0.00,,2013-02-20 15:02:00,
2013-02-20 10:11:00,31.0,1.0,29.92,NNW,327,8.0,20.0,27,0.00,,,0.00,,2013-02-20 15:11:00,
2013-02-20 10:22:00,32.0,1.0,29.92,NNW,342,8.0,18.0,26,0.00,,,0.00,,2013-02-20 15:22:00,
2013-02-20 10:32:00,33.0,0.0,29.94,NW,320,6.0,19.0,24,0.00,,,0.00,,2013-02-20 15:32:00,
2013-02-20 10:42:00,33.0,0.0,29.94,NW,320,6.0,19.0,24,0.00,,,0.00,,2013-02-20 15:42:00,
2013-02-20 10:52:00,35.0,2.0,29.95,NW,322,6.0,17.0,24,0.00,,,0.00,,2013-02-20 15:52:00,
2013-02-20 11:01:00,36.0,1.0,29.97,WNW,295,3.0,13.0,22,0.00,,,0.00,,2013-02-20 16:01:00,
2013-02-20 11:12:00,36.0,1.0,29.97,WNW,295,3.0,13.0,22,0.00,,,0.00,,2013-02-20 16:12:00,
2013-02-20 11:21:00,38.0,4.0,29.98,North,350,3.0,9.0,23,0.00,,,0.00,,2013-02-20 16:21:00,
2013-02-20 11:32:00,40.0,2.0,29.98,WNW,288,5.0,11.0,20,0.00,,,0.00,,2013-02-20 16:32:00,
2013-02-20 12:01:00,42.0,3.0,29.97,NNW,329,2.0,11.0,19,0.00,,,0.00,,2013-02-20 17:01:00,
2013-02-20 12:11:00,43.0,1.0,29.96,NW,315,3.0,9.0,17,0.00,,,0.00,,2013-02-20 17:11:00,
2013-02-20 12:21:00,43.0,1.0,29.96,NW,315,3.0,9.0,17,0.00,,,0.00,,2013-02-20 17:21:00,
2013-02-20 12:32:00,42.0,0.0,29.96,SSW,212,4.0,15.0,17,0.00,,,0.00,,2013-02-20 17:32:00,
2013-02-20 12:42:00,42.0,0.0,29.96,SSW,212,4.0,15.0,17,0.00,,,0.00,,2013-02-20 17:42:00,
2013-02-20 12:52:00,43.0,-3.0,29.94,WSW,246,3.0,21.0,14,0.00,,,0.00,,2013-02-20 17:52:00,
2013-02-20 13:02:00,43.0,0.0,29.94,NW,310,4.0,11.0,16,0.00,,,0.00,,2013-02-20 18:02:00,
2013-02-20 13:11:00,43.0,0.0,29.94,NW,310,4.0,11.0,16,0.00,,,0.00,,2013-02-20 18:11:00,
2013-02-20 13:22:00,44.0,-2.0,29.93,West,270,6.0,15.0,14,0.00,,,0.00,,2013-02-20 18:22:00,
2013-02-20 13:32:00,45.0,-1.0,29.94,SW,229,3.0,13.0,14,0.00,,,0.00,,2013-02-20 18:32:00,
2013-02-20 13:42:00,45.0,-1.0,29.94,SW,229,3.0,13.0,14,0.00,,,0.00,,2013-02-20 18:42:00,
2013-02-20 13:52:00,45.0,-1.0,29.93,WSW,242,3.0,12.0,14,0.00,,,0.00,,2013-02-20 18:52:00,
2013-02-20 14:01:00,45.0,-5.0,29.93,NW,313,4.0,14.0,12,0.00,,,0.00,,2013-02-20 19:01:00,
2013-02-20 14:11:00,45.0,-5.0,29.93,NW,313,4.0,14.0,12,0.00,,,0.00,,2013-02-20 19:11:00,
2013-02-20 14:21:00,45.0,-6.0,29.93,NNW,335,6.0,19.0,11,0.00,,,0.00,,2013-02-20 19:21:00,
2013-02-20 14:31:00,45.0,-3.0,29.93,NW,320,5.0,12.0,13,0.00,,,0.00,,2013-02-20 19:31:00,
2013-02-20 14:41:00,45.0,-3.0,29.93,NW,320,5.0,12.0,13,0.00,,,0.00,,2013-02-20 19:41:00,
2013-02-20 14:52:00,43.0,-8.0,29.92,NNE,15,6.0,20.0,11,0.00,,,0.00,,2013-02-20 19:52:00,
2013-02-20 15:01:00,43.0,-6.0,29.93,NW,325,3.0,11.0,12,0.00,,,0.00,,2013-02-20 20:01:00,
2013-02-20 15:11:00,42.0,-5.0,29.93,NNE,27,1.0,8.0,13,0.00,,,0.00,,2013-02-20 20:11:00,
2013-02-20 15:21:00,42.0,-5.0,29.93,NNE,27,1.0,8.0,13,0.00,,,0.00,,2013-02-20 20:21:00,
2013-02-20 15:31:00,42.0,-4.0,29.93,NNW,342,3.0,10.0,14,0.00,,,0.00,,2013-02-20 20:31:00,
2013-02-20 15:41:00,42.0,-2.0,29.93,SSW,212,2.0,9.0,15,0.00,,,0.00,,2013-02-20 20:41:00,
2013-02-20 15:52:00,42.0,-2.0,29.93,SSW,212,2.0,9.0,15,0.00,,,0.00,,2013-02-20 20:52:00,
2013-02-20 16:01:00,43.0,-3.0,29.92,WSW,239,1.0,9.0,14,0.00,,,0.00,,2013-02-20 21:01:00,
2013-02-20 16:11:00,43.0,-3.0,29.92,WSW,239,1.0,9.0,14,0.00,,,0.00,,2013-02-20 21:11:00,
2013-02-20 16:21:00,42.0,-1.0,29.93,WNW,301,2.0,8.0,16,0.00,,,0.00,,2013-02-20 21:21:00,
2013-02-20 16:31:00,42.0,-2.0,29.94,West,275,3.0,9.0,15,0.00,,,0.00,,2013-02-20 21:31:00,
2013-02-20 16:42:00,42.0,-2.0,29.94,West,275,3.0,9.0,15,0.00,,,0.00,,2013-02-20 21:42:00,
2013-02-20 16:52:00,40.0,-7.0,29.94,WSW,238,6.0,12.0,13,0.00,,,0.00,,2013-02-20 21:52:00,
2013-02-20 17:01:00,38.0,-4.0,29.94,SW,235,4.0,12.0,16,0.00,,,0.00,,2013-02-20 22:01:00,
2013-02-20 17:11:00,38.0,-4.0,29.94,SW,235,4.0,12.0,16,0.00,,,0.00,,2013-02-20 22:11:00,
2013-02-20 17:21:00,38.0,-5.0,29.95,WSW,237,3.0,11.0,15,0.00,,,0.00,,2013-02-20 22:21:00,
2013-02-20 17:31:00,37.0,-4.0,29.96,WSW,243,2.0,5.0,17,0.00,,,0.00,,2013-02-20 22:31:00,
2013-02-20 17:52:00,36.0,-5.0,29.97,WSW,242,4.0,9.0,17,0.00,,,0.00,,2013-02-20 22:52:00,
2013-02-20 18:01:00,35.0,-4.0,29.98,WNW,289,4.0,11.0,18,0.00,,,0.00,,2013-02-20 23:01:00,
2013-02-20 18:12:00,35.0,-4.0,29.98,WNW,289,4.0,11.0,18,0.00,,,0.00,,2013-02-20 23:12:00,
2013-02-20 18:22:00,34.0,-10.0,29.98,West,278,4.0,11.0,14,0.00,,,0.00,,2013-02-20 23:22:00,
2013-02-20 18:32:00,33.0,-10.0,29.98,West,262,4.0,13.0,15,0.00,,,0.00,,2013-02-20 23:32:00,
2013-02-20 18:42:00,33.0,-10.0,29.98,West,262,4.0,13.0,15,0.00,,,0.00,,2013-02-20 23:42:00,
2013-02-20 18:53:00,32.0,-8.0,29.98,WNW,302,2.0,9.0,17,0.00,,,0.00,,2013-02-20 23:53:00,
2013-02-20 19:03:00,32.0,-10.0,29.98,West,275,7.0,13.0,15,0.00,,,0.00,,2013-02-21 00:03:00,
2013-02-20 19:11:00,32.0,-10.0,29.98,West,275,7.0,13.0,15,0.00,,,0.00,,2013-02-21 00:11:00,
2013-02-20 19:22:00,32.0,-10.0,29.97,WNW,288,1.0,7.0,15,0.00,,,0.00,,2013-02-21 00:22:00,
2013-02-20 19:32:00,32.0,-12.0,29.97,WSW,242,2.0,10.0,14,0.00,,,0.00,,2013-02-21 00:32:00,
2013-02-20 19:42:00,32.0,-12.0,29.97,WSW,242,2.0,10.0,14,0.00,,,0.00,,2013-02-21 00:42:00,
2013-02-20 19:52:00,32.0,-12.0,29.98,West,279,2.0,7.0,14,0.00,,,0.00,,2013-02-21 00:52:00,
2013-02-20 20:01:00,32.0,-9.0,29.98,West,269,0.0,5.0,16,0.00,,,0.00,,2013-02-21 01:01:00,
2013-02-20 20:11:00,32.0,-9.0,29.98,West,269,0.0,5.0,16,0.00,,,0.00,,2013-02-21 01:11:00,
2013-02-20 20:21:00,31.0,-11.0,29.96,WNW,288,0.0,9.0,15,0.00,,,0.00,,2013-02-21 01:21:00,
2013-02-20 20:32:00,31.0,-11.0,29.97,West,260,2.0,6.0,15,0.00,,,0.00,,2013-02-21 01:32:00,
2013-02-20 20:42:00,31.0,-11.0,29.97,West,260,2.0,6.0,15,0.00,,,0.00,,2013-02-21 01:42:00,
2013-02-20 20:52:00,31.0,-14.0,29.96,WNW,282,1.0,6.0,13,0.00,,,0.00,,2013-02-21 01:52:00,
2013-02-20 21:02:00,30.0,-16.0,29.97,West,259,4.0,9.0,12,0.00,,,0.00,,2013-02-21 02:02:00,
2013-02-20 21:11:00,30.0,-16.0,29.97,West,259,4.0,9.0,12,0.00,,,0.00,,2013-02-21 02:11:00,
2013-02-20 21:21:00,30.0,-13.0,29.96,West,261,4.0,9.0,14,0.00,,,0.00,,2013-02-21 02:21:00,
2013-02-20 21:32:00,29.0,-9.0,29.96,West,261,5.0,10.0,18,0.00,,,0.00,,2013-02-21 02:32:00,
2013-02-20 21:42:00,29.0,-9.0,29.96,West,261,5.0,10.0,18,0.00,,,0.00,,2013-02-21 02:42:00,
2013-02-20 21:52:00,29.0,-9.0,29.96,West,261,5.0,10.0,18,0.00,,,0.00,,2013-02-21 02:52:00,
2013-02-20 22:02:00,29.0,-4.0,29.97,WSW,250,6.0,9.0,23,0.00,,,0.00,,2013-02-21 03:02:00,
2013-02-20 22:12:00,29.0,-4.0,29.97,WSW,250,6.0,9.0,23,0.00,,,0.00,,2013-02-21 03:12:00,
2013-02-20 22:21:00,29.0,-4.0,29.97,WSW,248,5.0,9.0,23,0.00,,,0.00,,2013-02-21 03:21:00,
2013-02-20 22:32:00,29.0,-5.0,29.97,WSW,248,1.0,5.0,22,0.00,,,0.00,,2013-02-21 03:32:00,
2013-02-20 22:42:00,29.0,-5.0,29.97,WSW,248,1.0,5.0,22,0.00,,,0.00,,2013-02-21 03:42:00,
2013-02-20 23:01:00,29.0,-4.0,29.96,SW,232,2.0,6.0,23,0.00,,,0.00,,2013-02-21 04:01:00,
2013-02-20 23:11:00,29.0,-4.0,29.96,SW,232,2.0,6.0,23,0.00,,,0.00,,2013-02-21 04:11:00,
2013-02-20 23:22:00,28.0,-2.0,29.95,SW,224,0.0,5.0,26,0.00,,,0.00,,2013-02-21 04:22:00,
2013-02-20 23:32:00,28.0,1.0,29.96,WSW,240,3.0,9.0,30,0.00,,,0.00,,2013-02-21 04:32:00,
2013-02-20 23:42:00,28.0,1.0,29.96,WSW,240,3.0,9.0,30,0.00,,,0.00,,2013-02-21 04:42:00,
2013-02-20 23:52:00,28.0,0.0,29.96,WSW,246,3.0,8.0,29,0.00,,,0.00,,2013-02-21 04:52:00,